Regional Weather Roundup
Issued by NWS

Home | Current Version | Previous Version | Graphics & Text | Print | Product List | Glossary On
Versions: 1 2 3 4 5 6 7 8 9 10 11 12 13 14 15 16 17 18 19 20 21 22 23 24 25 26 27 28 29 30 31 32 33 34 35 36 37 38 39 40 41 42 43 44 45 46 47 48 49 50
000
ASUS43 KLOT 160708
RWRIL

ILLINOIS REGIONAL WEATHER ROUNDUP
NATIONAL WEATHER SERVICE CHICAGO/ROMEOVILLE IL
100 AM CST MON JAN 16 2017

NOTE: "FAIR" INDICATES FEW OR NO CLOUDS BELOW 12,000 FEET WITH NO
SIGNIFICANT WEATHER AND/OR OBSTRUCTIONS TO VISIBILITY.

* THESE STATIONS ARE NOT UNDER NWS QUALITY CONTROL. THEY ALSO MAY NOT
  REPORT WEATHER SUCH AS PRECIPITATION OR FOG.

ILZ001-002-007-009-015-016-024-160800-
NORTHWEST ILLINOIS

CITY           SKY/WX    TMP DP  RH WIND       PRES   REMARKS
MOLINE         CLOUDY    33  27  78 E7        30.23F HAZE    WCI  27
STERLING*      MIX PCPN  31  28  89 E8        30.26F FOG     WCI  23
SAVANNA*       MIX PCPN  31  26  81 E5        30.26S WCI  26
$$

ILZ003-004-008-010-011-017-018-160800-
NORTH CENTRAL ILLINOIS

CITY           SKY/WX    TMP DP  RH WIND       PRES   REMARKS
ROCKFORD       CLOUDY    30  23  75 SE3       30.28F
FREEPORT*      CLOUDY    28  23  84 SE6       30.28S WCI  21
ROCHELLE*      DRIZZLE   30  28  90 E3        30.27F
DE KALB*       CLOUDY    31  27  83 E6        30.27S WCI  25
$$

ILZ005-006-012>014-019>023-160800-
NORTHEAST ILLINOIS

CITY           SKY/WX    TMP DP  RH WIND       PRES   REMARKS
CHICAGO-OHARE  CLOUDY    31  26  82 CALM      30.27F
CHICAGO-MIDWAY CLOUDY    33  25  72 SE6       30.28F WCI  28
AURORA         MOCLDY    32  26  78 E5        30.27F HAZE    WCI  27
LANSING*       CLOUDY    32  29  90 E3        30.29S
JOLIET*        CLOUDY    34  30  85 E5        30.28F WCI  30
WAUKEGAN       CLOUDY    25  21  85 CALM      30.27F FOG
DUPAGE AIRPORT CLOUDY    32  25  75 SE3       30.27F
KANKAKEE*      LGT RAIN  32  29  87 CALM      30.29S
WHEELING       CLOUDY    29  23  78 CALM      30.29F
MORRIS*        LGT RAIN  32  30  90 E6        30.26F WCI  27
ROMEOVILLE*    CLOUDY    32  31  96 SE3       30.28F
NORTHERLY ISL    N/A     31  28  89 SE2         N/A
$$

LMZ740>746-160800-
SOUTHERN LAKE MICHIGAN

STATION/POSITION SKY/WX   TEMP    WIND        PRES    VSBY  WAVE
                          AIR SEA DIR/SP/G                  HT/PER
                          (F)     (DEG/KT/KT) (MB)    (MI)  (FT/S)
HARRISON CRIB              33     160/  6/  7   N/A
BURNHAM HARBOR             31     140/  3       N/A
CALUMET HARBOR                    140/  2/  4 1025.0F
BURNS HARBOR               33     130/  5/  9 1026.1F
MICHIGAN CITY              31     120/  5/  6   N/A
$$

ILZ025>027-034>036-040-047-049-050-058-095>099-160800-
WEST-CENTRAL ILLINOIS

CITY           SKY/WX    TMP DP  RH WIND       PRES   REMARKS
QUINCY         FOG       32  32 100 E8        30.18F VSB 1/2 WCI  25
GALESBURG*     CLOUDY    32  29  90 E6        30.23R WCI  26
MACOMB*        CLOUDY    32  32  99 E6        30.24F FOG     WCI  26
JACKSONVILLE*  CLOUDY    32  32  99 E6        30.21F FOG     WCI  27
PITTSFIELD*    FOG       33  33  99 NE6       30.20S VSB 3/4 WCI  27
$$

ILZ028>032-037-038-041>044-048-051>054-059>061-160800-
CENTRAL ILLINOIS

CITY           SKY/WX    TMP DP  RH WIND       PRES   REMARKS
PONTIAC        CLOUDY    33  33  99 E7        30.26F FOG     WCI  27
BLOOMINGTON    CLOUDY    32  30  92 SE7       30.25S FOG     WCI  26
DECATUR        CLOUDY    33  33 100 E6        30.24F FOG     WCI  28
PEORIA         CLOUDY    33  30  88 E6        30.25F FOG     WCI  28
LACON*         CLOUDY    33  31  93 E3        30.24F
LINCOLN*       CLOUDY    34  33  99 E3        30.24S FOG
SPRINGFIELD    CLOUDY    35  32  88 E7        30.23F FOG     WCI  29
TAYLORVILLE    CLOUDY    33  33  99 E7        30.22F FOG     WCI  27
$$

ILZ033-039-045-046-055>057-062-063-160800-
EAST-CENTRAL ILLINOIS

CITY           SKY/WX    TMP DP  RH WIND       PRES   REMARKS
CHAMPAIGN      CLOUDY    33  31  92 E7        30.25F FOG     WCI  27
RANTOUL*       CLOUDY    34  33  94 E5        30.25F FOG     WCI  30
MATTOON        CLOUDY    35  34  96 SE5       30.23F FOG     WCI  31
PARIS*         CLOUDY    33  33  99 E5        30.26F FOG     WCI  29
$$

ILZ079-100>102-160800-
SOUTHWEST ILLINOIS

CITY           SKY/WX    TMP DP  RH WIND       PRES   REMARKS
ALTON          FOG       36  36 100 E6        30.21S VSB 1   WCI  31
BELLEVILLE     FOG       37  37 100 E5        30.20S VSB 1/4 WCI  34
CAHOKIA*       FOG       38  37  97 SE6       30.20F VSB 1/2 WCI  33
SPARTA*        FOG       38  38  99 SE3       30.22F VSB 1/2
$$

ILZ064>066-069>071-074>076-080>082-084>086-088>090-092>094-160800-
SOUTH-CENTRAL ILLINOIS

CITY           SKY/WX    TMP DP  RH WIND       PRES   REMARKS
CARBONDALE     FOG       40  40 100 SE3       30.21F VSB 1
CAIRO*         CLOUDY    41  41 100 E6        30.20S FOG
EFFINGHAM*     CLOUDY    37  37 100 E5        30.25S FOG     WCI  33
MARION         CLOUDY    41  41 100 CALM      30.22S FOG
MT. VERNON     FOG       39  38  96 NE3       30.23S VSB 3/4
CENTRALIA*     FOG       39  39 100 E5        30.21F VSB 3/4
SALEM*         FOG       39  38  95 E3        30.23R VSB 3/4
METROPOLIS*    CLOUDY    43  43  99 CALM      30.22S FOG
$$

ILZ067-068-072-073-078-083-087-091-160800-
SOUTHEAST ILLINOIS

CITY           SKY/WX    TMP DP  RH WIND       PRES   REMARKS
LAWRENCEVILLE  CLOUDY    39  39 100 E6        30.25F WCI  35
FLORA*         CLOUDY    39  38  97 E5        30.24S FOG
FAIRFIELD*     CLOUDY    39  39 100 CALM      30.23R FOG
HARRISBURG*    CLOUDY    41  41  99 E3        30.23S FOG
ROBINSON*      CLOUDY    37  37  99 E5        30.26F FOG     WCI  33
CARMI*         CLOUDY    40  40 100 SE3       30.23R FOG
$$

ABBREVIATIONS USED IN REMARKS
   TC - TEMPERATURE IN CELSIUS
  WCI - WIND CHILL INDEX
   HX - HEAT INDEX
  VSB - VISIBILITY
$$





USA.gov is the U.S. government's official web portal to all federal, state and local government web resources and services.